TimeCST,TemperatureF,Dew PointF,Humidity,Sea Level PressureIn,VisibilityMPH,Wind Direction,Wind SpeedMPH,Gust SpeedMPH,PrecipitationIn,Events,Conditions,WindDirDegrees,DateUTC
12:15 AM,32.2,32.2,100,30.00,4.0,North,10.4,-,N/A,Snow,Light Snow,350,2013-11-06 06:15:00
12:35 AM,32.4,32.4,100,29.99,3.0,North,11.5,-,N/A,Snow,Light Snow,350,2013-11-06 06:35:00
12:55 AM,32.4,32.4,100,29.99,4.0,North,11.5,-,N/A,Snow,Light Snow,360,2013-11-06 06:55:00
1:15 AM,32.4,32.4,100,29.99,3.0,North,11.5,-,0.01,Snow,Light Snow,350,2013-11-06 07:15:00
1:35 AM,32.4,32.4,100,29.99,3.0,North,12.7,-,0.01,Snow,Light Snow,350,2013-11-06 07:35:00
1:55 AM,32.2,32.2,100,29.99,7.0,North,11.5,-,0.01,Snow,Light Snow,350,2013-11-06 07:55:00
2:15 AM,32.2,32.2,100,30.00,10.0,North,11.5,-,N/A,,Overcast,350,2013-11-06 08:15:00
2:35 AM,32.0,32.0,100,30.00,7.0,North,11.5,-,N/A,Snow,Light Snow,350,2013-11-06 08:35:00
2:55 AM,32.0,32.0,100,29.99,5.0,NNW,11.5,-,N/A,Snow,Light Snow,340,2013-11-06 08:55:00
3:15 AM,32.0,32.0,100,29.99,4.0,NNW,10.4,-,N/A,Snow,Light Snow,340,2013-11-06 09:15:00
3:35 AM,32.0,32.0,100,29.99,5.0,NNW,10.4,-,N/A,Snow,Light Snow,340,2013-11-06 09:35:00
3:55 AM,31.8,31.5,99,30.00,10.0,NNW,13.8,-,N/A,Snow,Light Snow,340,2013-11-06 09:55:00
4:15 AM,31.8,31.1,97,30.00,7.0,NNW,12.7,-,N/A,Snow,Light Snow,330,2013-11-06 10:15:00
4:35 AM,31.6,31.1,98,30.01,3.0,NNW,12.7,-,N/A,Snow,Light Snow,340,2013-11-06 10:35:00
4:55 AM,31.1,31.1,100,30.00,5.0,North,12.7,-,N/A,Snow,Light Snow,350,2013-11-06 10:55:00
5:15 AM,31.1,30.7,99,29.99,10.0,NNW,11.5,-,N/A,,Overcast,340,2013-11-06 11:15:00
5:35 AM,31.1,30.6,98,29.99,10.0,NNW,11.5,-,N/A,,Overcast,340,2013-11-06 11:35:00
5:55 AM,31.1,30.6,98,30.00,10.0,NNW,9.2,-,N/A,,Overcast,330,2013-11-06 11:55:00
6:15 AM,30.7,30.0,97,30.00,10.0,North,8.1,-,N/A,,Mostly Cloudy,350,2013-11-06 12:15:00
6:35 AM,30.0,29.1,96,30.00,10.0,NNW,8.1,-,N/A,,Scattered Clouds,340,2013-11-06 12:35:00
6:55 AM,29.3,29.1,99,29.99,10.0,NW,6.9,-,N/A,,Scattered Clouds,320,2013-11-06 12:55:00
7:15 AM,29.3,28.9,99,30.00,10.0,NW,5.8,-,N/A,,Scattered Clouds,320,2013-11-06 13:15:00
7:35 AM,29.3,28.9,99,30.01,10.0,NW,5.8,-,N/A,,Scattered Clouds,320,2013-11-06 13:35:00
7:55 AM,30.9,30.0,96,30.02,10.0,NW,6.9,-,N/A,,Overcast,320,2013-11-06 13:55:00
8:15 AM,30.9,29.1,93,30.02,10.0,NW,9.2,-,N/A,,Overcast,320,2013-11-06 14:15:00
8:35 AM,30.2,28.2,92,30.03,10.0,NW,9.2,-,N/A,,Scattered Clouds,320,2013-11-06 14:35:00
8:55 AM,31.1,28.2,89,30.03,10.0,NW,8.1,-,N/A,,Clear,320,2013-11-06 14:55:00
9:15 AM,31.8,28.2,87,30.03,10.0,NW,8.1,-,N/A,,Clear,320,2013-11-06 15:15:00
9:35 AM,32.0,27.5,83,30.03,10.0,NW,11.5,-,0.01,,Clear,320,2013-11-06 15:35:00
9:55 AM,32.2,27.1,82,30.04,10.0,NW,9.2,-,0.02,,Clear,310,2013-11-06 15:55:00
10:15 AM,32.5,26.8,79,30.04,10.0,NW,8.1,-,N/A,,Clear,320,2013-11-06 16:15:00
10:35 AM,33.3,28.0,81,30.04,10.0,NW,8.1,-,N/A,,Clear,310,2013-11-06 16:35:00
10:55 AM,33.3,27.7,80,30.05,10.0,WNW,11.5,-,N/A,,Clear,290,2013-11-06 16:55:00
11:15 AM,34.0,28.2,79,30.05,10.0,WNW,9.2,-,0.01,,Clear,300,2013-11-06 17:15:00
11:35 AM,34.2,26.8,74,30.04,10.0,WNW,11.5,-,0.01,,Clear,300,2013-11-06 17:35:00
11:55 AM,34.9,27.1,73,30.05,10.0,WNW,10.4,-,0.01,,Clear,300,2013-11-06 17:55:00
12:15 PM,35.2,27.3,73,30.05,10.0,WNW,11.5,-,N/A,,Clear,290,2013-11-06 18:15:00
12:35 PM,35.6,26.6,70,30.05,10.0,WNW,13.8,18.4,0.01,,Clear,300,2013-11-06 18:35:00
12:55 PM,36.1,28.0,72,30.05,10.0,WNW,11.5,16.1,0.01,,Clear,300,2013-11-06 18:55:00
1:15 PM,36.7,27.3,69,30.06,10.0,WNW,10.4,-,0.01,,Clear,290,2013-11-06 19:15:00
1:35 PM,36.5,24.6,62,30.06,10.0,West,11.5,17.3,0.02,,Clear,280,2013-11-06 19:35:00
1:55 PM,36.9,25.5,64,30.06,10.0,WNW,12.7,-,0.03,,Clear,290,2013-11-06 19:55:00
2:15 PM,37.4,26.8,66,30.07,10.0,West,12.7,16.1,0.01,,Clear,280,2013-11-06 20:15:00
2:35 PM,37.4,25.7,63,30.07,10.0,WNW,13.8,-,0.03,,Clear,290,2013-11-06 20:35:00
2:55 PM,35.6,25.2,66,30.08,10.0,West,10.4,-,0.03,,Clear,280,2013-11-06 20:55:00
3:15 PM,36.7,26.4,66,30.08,10.0,West,11.5,-,0.01,,Clear,280,2013-11-06 21:15:00
3:35 PM,36.9,26.8,67,30.09,10.0,West,11.5,-,0.01,,Clear,270,2013-11-06 21:35:00
3:55 PM,36.3,25.7,65,30.09,10.0,West,11.5,-,0.02,,Clear,270,2013-11-06 21:55:00
4:15 PM,35.1,25.5,68,30.10,10.0,West,10.4,-,N/A,,Clear,270,2013-11-06 22:15:00
4:35 PM,34.0,25.7,72,30.10,10.0,West,9.2,-,N/A,,Clear,260,2013-11-06 22:35:00
4:55 PM,33.3,25.7,74,30.10,10.0,West,8.1,-,N/A,,Clear,260,2013-11-06 22:55:00
5:15 PM,32.5,26.1,77,30.10,10.0,WSW,8.1,-,N/A,,Scattered Clouds,250,2013-11-06 23:15:00
5:35 PM,32.0,26.1,79,30.11,10.0,WSW,8.1,-,N/A,,Scattered Clouds,250,2013-11-06 23:35:00
5:55 PM,31.8,26.1,79,30.11,10.0,WSW,6.9,-,N/A,,Clear,250,2013-11-06 23:55:00
6:15 PM,31.6,25.7,79,30.11,10.0,West,6.9,-,N/A,,Clear,260,2013-11-07 00:15:00
6:35 PM,30.9,25.9,82,30.12,10.0,WSW,6.9,-,N/A,,Clear,250,2013-11-07 00:35:00
6:55 PM,31.6,26.8,82,30.13,10.0,West,6.9,-,N/A,,Mostly Cloudy,260,2013-11-07 00:55:00
7:15 PM,31.1,26.4,83,30.13,10.0,WSW,5.8,-,N/A,,Scattered Clouds,250,2013-11-07 01:15:00
7:35 PM,30.2,26.2,85,30.13,10.0,WSW,4.6,-,N/A,,Clear,250,2013-11-07 01:35:00
7:55 PM,29.7,25.9,86,30.13,10.0,SW,3.5,-,N/A,,Clear,230,2013-11-07 01:55:00
8:15 PM,29.3,26.2,88,30.13,10.0,SW,3.5,-,N/A,,Clear,230,2013-11-07 02:15:00
8:35 PM,29.3,26.2,88,30.13,10.0,Calm,Calm,-,N/A,,Mostly Cloudy,0,2013-11-07 02:35:00
8:55 PM,29.3,26.1,88,30.13,10.0,WSW,4.6,-,N/A,,Overcast,240,2013-11-07 02:55:00
9:15 PM,30.2,26.1,85,30.13,10.0,WSW,4.6,-,N/A,,Overcast,240,2013-11-07 03:15:00
9:35 PM,30.4,25.7,83,30.13,10.0,Calm,Calm,-,N/A,,Overcast,0,2013-11-07 03:35:00
9:55 PM,30.2,25.3,82,30.14,10.0,Calm,Calm,-,N/A,,Overcast,0,2013-11-07 03:55:00
10:15 PM,30.7,25.5,81,30.14,10.0,Calm,Calm,-,N/A,,Overcast,0,2013-11-07 04:15:00
10:35 PM,30.9,26.1,82,30.14,10.0,Calm,Calm,-,N/A,,Overcast,0,2013-11-07 04:35:00
10:55 PM,30.9,25.5,80,30.14,10.0,Calm,Calm,-,N/A,,Overcast,0,2013-11-07 04:55:00
11:15 PM,30.2,25.5,83,30.14,10.0,Calm,Calm,-,N/A,,Overcast,0,2013-11-07 05:15:00
11:35 PM,30.2,25.7,83,30.14,10.0,Calm,Calm,-,N/A,,Scattered Clouds,0,2013-11-07 05:35:00
11:55 PM,29.3,26.1,88,30.14,10.0,Calm,Calm,-,N/A,,Clear,0,2013-11-07 05:55:00